This is the latest recevied weather packets stored in our database for station/object WX7EM. If no packets are shown the sender has not sent any weather packets the latest 10 day(s).
| Time | Temp. | Humidity | Pressure | Rain* | Wind** | Luminosity | Snow |
|---|---|---|---|---|---|---|---|
| 1777507986 | 19.44° C | 46% | 1019.1 hPa | 0 mm | - | 82 W/m² | - |
| 1777507683 | 19.44° C | 45% | 1019.1 hPa | 0 mm | - | 101 W/m² | - |
| 1777507380 | 19.44° C | 47% | 1019.2 hPa | 0 mm | - | 159 W/m² | - |
| 1777507077 | 19.44° C | 48% | 1019.2 hPa | 0 mm | - | 104 W/m² | - |
| 1777506775 | 18.89° C | 49% | 1019.2 hPa | 0 mm | - | 135 W/m² | - |
| 1777506471 | 18.89° C | 50% | 1019.5 hPa | 0 mm | - | 137 W/m² | - |
| 1777506167 | 18.89° C | 50% | 1019.4 hPa | 0 mm | - | 61 W/m² | - |
| 1777505863 | 18.89° C | 51% | 1019.8 hPa | 0 mm | - | 69 W/m² | - |
| 1777505559 | 18.89° C | 50% | 1019.8 hPa | 0 mm | - | 77 W/m² | - |
| 1777505256 | 18.89° C | 51% | 1019.8 hPa | 0 mm | - | 103 W/m² | - |
| 1777504952 | 18.89° C | 51% | 1019.8 hPa | 0 mm | - | 87 W/m² | - |
| 1777504650 | 18.89° C | 51% | 1019.7 hPa | 0 mm | - | 80 W/m² | - |
| 1777504347 | 18.89° C | 50% | 1020 hPa | 0 mm | - | 68 W/m² | - |
| 1777504046 | 18.33° C | 51% | 1020 hPa | 0 mm | - | 73 W/m² | - |
| 1777503744 | 18.33° C | 50% | 1020.2 hPa | 0 mm | - | 273 W/m² | - |
| 1777503441 | 18.33° C | 51% | 1020 hPa | 0 mm | - | 155 W/m² | - |
| 1777503136 | 18.33° C | 51% | 1020.3 hPa | 0 mm | - | 141 W/m² | - |
| 1777502834 | 18.33° C | 51% | 1020.4 hPa | 0 mm | - | 114 W/m² | - |
| 1777502531 | 18.33° C | 51% | 1020.5 hPa | 0 mm | - | 86 W/m² | - |
| 1777502228 | 18.89° C | 51% | 1020.5 hPa | 0 mm | - | 67 W/m² | - |
| 1777501925 | 18.33° C | 52% | 1020.5 hPa | 0 mm | - | 194 W/m² | - |
| 1777501622 | 18.33° C | 51% | 1020.6 hPa | 0 mm | - | 112 W/m² | - |
| 1777501319 | 18.33° C | 52% | 1020.7 hPa | 0 mm | - | 112 W/m² | - |
| 1777501017 | 17.78° C | 52% | 1020.6 hPa | 0 mm | - | 239 W/m² | - |
| 1777500715 | 17.78° C | 52% | 1020.8 hPa | 0 mm | - | 201 W/m² | - |
* Rain latest hour (hover to see other rain measurements)
** Current wind speed in m/s (hover to see current wind gust speed)